Vorticity
3 4 5 5 3 5 4 4 5 7 11 11 11 10 10 8 6 5 5 5 6 5 5 5 4 4 5 6 6 6 6 6 6
3 3 3 5 3 4 4 4 3 5 7 10 9 9 9 7 5 5 5 5 5 5 5 5 6 5 5 5 5 6 6 6 7
4 5 5 3 3 4 5 5 4 3 4 7 8 8 7 7 6 6 6 5 5 4 5 4 5 5 5 5 5 5 5 6 6
5 5 5 3 4 4 2 5 5 4 4 4 5 7 8 7 6 6 6 6 5 5 5 5 4 5 5 5 5 5 5 5 6
4 4 4 4 4 4 4 6 7 5 4 3 3 4 6 8 7 7 6 7 6 6 5 5 5 5 5 5 6 5 6 6 6
7 5 4 5 4 5 4 4 6 5 5 5 4 3 3 4 6 7 7 7 7 7 7 7 6 6 6 5 5 6 6 6 5
3 3 5 7 7 6 6 4 4 4 4 4 4 4 3 3 3 4 4 5 6 6 6 7 7 7 7 7 6 5 6 6 6
5 7 6 4 4 5 4 5 5 4 4 4 4 3 4 3 3 2 3 3 3 4 4 5 6 7 7 7 7 7 7 7 6
7 6 6 6 5 8 8 7 9 5 6 7 5 5 4 4 3 3 3 4 3 2 3 3 4 5 5 6 7 7 7 7 8
9 8 5 4 9 6 7 9 8 7 7 6 8 6 5 4 4 3 3 3 3 5 3 2 2 3 3 4 5 6 6 8 6
0 2 3 5 4 3 6 6 4 5 3 5 7 7 8 7 6 6 6 5 4 3 3 6 3 2 3 3 4 4 5 6 8
-1 5 5 10 8 4 11 6 11 8 11 9 6 7 10 8 6 8 4 2 4 5 9 3 3 4 4 3 2 4 3 4 5
4 2 3 3 7 9 11 6 7 7 4 5 4 4 2 6 9 10 6 7 5 6 6 8 10 6 3 4 2 3 3 4 3
10 -1 9 1 2 6 4 3 5 5 7 6 7 9 9 8 7 6 5 6 7 10 9 8 10 5 5 5 4 2 4 2 3
-18 13 12 13 5 5 6 6 5 8 7 7 5 4 5 6 7 9 9 12 13 13 9 2 6 16 4 6 10 4 18 0 4
17 -2 -6 13 8 9 10 12 9 8 5 4 5 4 4 5 6 4 5 6 4 4 7 11 12 11 10 9 10 9 6 4 5
18 11 10 -5 8 10 9 5 1 5 4 1 3 6 6 6 4 4 5 5 5 5 3 1 3 7 10 8 10 11 10 8 12
17 15 14 9 9 15 6 2 4 5 2 4 4 9 6 8 1 1 0 4 7 8 8 7 5 6 9 14 9 7 13 16 9
19 17 16 1 10 7 7 5 7 4 6 4 4 6 6 6 12 -1 2 7 11 13 15 13 11 16 12 13 19 24 1 4 14
11 17 5 16 -9 1 26 -3 -4 1 7 8 6 2 1 -0 4 8 8 9 19 26 22 18 17 15 10 13 8 19 3 6 2
Height
3162 3162 3161 3161 3161 3161 3160 3160 3159 3158 3157 3156 3156 3157 3157 3157 3156 3157 3158 3158 3158 3157 3157 3157 3157 3156 3156 3156 3156 3155 3155 3154 3153
3160 3160 3160 3160 3159 3159 3159 3158 3158 3157 3156 3156 3156 3156 3156 3156 3155 3156 3156 3156 3156 3156 3157 3156 3156 3156 3155 3155 3154 3153 3153 3153 3152
3158 3157 3157 3158 3158 3157 3157 3157 3156 3156 3155 3155 3155 3155 3155 3155 3155 3155 3155 3155 3155 3155 3155 3155 3155 3154 3154 3154 3153 3153 3152 3151 3151
3155 3154 3154 3155 3155 3155 3156 3156 3155 3154 3154 3153 3153 3153 3153 3154 3153 3153 3153 3153 3153 3154 3154 3154 3154 3154 3153 3153 3152 3151 3151 3150 3150
3152 3152 3152 3152 3152 3152 3152 3153 3153 3153 3152 3151 3151 3152 3152 3152 3152 3152 3151 3151 3152 3152 3152 3152 3152 3152 3152 3152 3151 3150 3149 3148 3147
3147 3147 3148 3148 3148 3149 3149 3149 3149 3150 3150 3150 3149 3149 3149 3150 3150 3150 3150 3150 3150 3150 3150 3150 3150 3150 3150 3150 3149 3148 3148 3147 3146
3142 3142 3142 3144 3144 3145 3145 3145 3146 3146 3146 3147 3147 3147 3146 3147 3147 3148 3148 3148 3149 3148 3148 3148 3148 3148 3147 3147 3146 3145 3145 3144 3143
3134 3136 3138 3138 3139 3140 3140 3141 3142 3142 3142 3143 3143 3144 3144 3144 3144 3145 3145 3146 3146 3146 3146 3146 3146 3145 3145 3144 3143 3142 3142 3141 3140
3128 3129 3131 3132 3134 3134 3135 3136 3136 3137 3138 3139 3139 3140 3140 3141 3141 3141 3142 3142 3142 3142 3142 3142 3142 3142 3142 3141 3140 3139 3138 3138 3137
3121 3123 3124 3126 3127 3129 3129 3130 3131 3132 3132 3134 3135 3135 3136 3136 3136 3137 3137 3138 3138 3138 3138 3139 3138 3138 3137 3137 3137 3136 3135 3135 3133
3112 3115 3117 3119 3121 3122 3123 3124 3125 3126 3127 3128 3129 3130 3131 3131 3131 3132 3132 3133 3134 3134 3134 3134 3134 3134 3133 3133 3133 3132 3132 3131 3130
3105 3106 3109 3113 3114 3115 3117 3118 3119 3121 3122 3123 3123 3124 3125 3126 3126 3126 3127 3128 3128 3128 3129 3129 3128 3128 3128 3127 3128 3128 3127 3126 3126
3095 3098 3101 3104 3107 3108 3110 3112 3114 3115 3116 3117 3118 3118 3119 3119 3120 3121 3122 3122 3122 3122 3123 3123 3122 3122 3122 3122 3121 3122 3122 3121 3121
3084 3088 3093 3096 3099 3101 3103 3104 3106 3108 3109 3111 3112 3113 3113 3114 3114 3116 3116 3117 3117 3117 3116 3116 3116 3115 3115 3115 3115 3115 3116 3116 3116
3075 3079 3082 3087 3090 3093 3096 3097 3099 3101 3102 3104 3105 3106 3107 3108 3109 3110 3110 3109 3109 3109 3108 3108 3107 3107 3108 3108 3108 3108 3108 3109 3109
3063 3069 3074 3079 3082 3086 3088 3089 3091 3095 3096 3096 3098 3098 3099 3101 3103 3102 3102 3102 3102 3100 3100 3100 3100 3100 3100 3099 3099 3100 3100 3101 3101
3053 3058 3064 3072 3074 3078 3080 3082 3085 3087 3089 3089 3090 3090 3094 3094 3095 3094 3094 3094 3094 3093 3093 3092 3092 3091 3090 3090 3090 3090 3091 3091 3091
3044 3049 3056 3063 3067 3070 3072 3074 3077 3080 3082 3083 3082 3081 3083 3084 3085 3086 3086 3086 3086 3084 3084 3083 3082 3080 3080 3080 3081 3081 3081 3082 3082
3037 3043 3048 3054 3059 3062 3064 3066 3070 3073 3075 3076 3076 3075 3074 3073 3069 3074 3075 3076 3075 3074 3073 3072 3070 3069 3068 3069 3069 3070 3071 3071 3071
3031 3037 3042 3048 3053 3054 3058 3061 3063 3065 3069 3070 3071 3070 3069 3068 3064 3058 3061 3062 3063 3063 3062 3060 3060 3059 3058 3058 3059 3060 3060 3060 3060